Погода в Алдане

Россия / Республика Саха (Якутия)     58°36′34″N   125°22′54″E
темп.,
°C
ветер,
м/с
пор.,
м/с
влажн.,
%
обл.,
%
осадки,
мм/ч
давл.,
гПа
погр.,
м
1 марта, пн
пн100:00−30з4998100 0.1 1034313
03:00−31зюз2399100 0.3 103527
06:00−32зюз2398100 0.1 103542
09:00−30зюз3796100 0.1 1035354
12:00−28з4687100 0.1 1033857
15:00−27зсз5685100 0.1 10311071
18:00−30з22100100 0.1 103119
21:00−32ююз229999 0.1 103219
2 марта, вт
вт200:00−31ююз3395100 0.0 103124
03:00−33ю4493100 0.1 103126
06:00−33ю449397 0.0 103028
09:00−31ю449050 0.0 102973
12:00−26ююз347946 0.0 1026575
15:00−24ююз347171 0.0 1023894
18:00−29ю338099 0.0 102324
21:00−32ююв448062 0.0 102427
3 марта, ср
ср300:00−32ююв448056 0.0 102330
03:00−32ююв448449 0.0 102226
06:00−31ю238897 0.0 102219
09:00−29ююз119198 0.0 102131
12:00−26ссз2191100 0.0 1018390
15:00−26с3395100 0.1 1017397
18:00−29ссз22100100 0.1 101919
21:00−31зсз11100100 0.1 102219
4 марта, чт
чт400:00−32з11100100 0.1 102419
03:00−33зсз12100100 0.2 102619
06:00−35з12100100 0.1 102719
09:00−33з3797100 0.2 1029448
12:00−31з5990100 0.1 1029726
15:00−30з81193100 0.2 1028854
18:00−31зсз71397100 0.2 1029721
21:00−31з61399100 0.5 1030680
5 марта, пт
пт500:00−31зсз61299100 0.3 1030814
03:00−32зсз612100100 0.6 1032890
06:00−32зсз612100100 0.3 1033648
09:00−32зсз61197100 0.5 1035766
12:00−29зсз61094100 0.3 1034784
15:00−27зсз6994100 0.6 1034803
18:00−28з5998100 0.3 1034390
21:00−30зюз3599100 0.4 103696